Home   Weather   Bellingham   Past weeks

Flag for USA Past Weather in Bellingham, Washington, USA — Yesterday and Last 2 Weeks

Now
57 °F

Clear.


Feels Like: 56 °F
Forecast: 53 / 71 °F
Wind: 6 mph from North

Location: Bellingham International Airport

Current Time: Sep 26, 2016 at 12:13:57 AM

Latest Report: Sep 25, 2016 at 11:53 PM


Visibility: 10 mi

Pressure: 30.27 "Hg

Humidity: 83%

Dew Point: 52 °F

Location of BellinghamLocation

Past Weather in Bellingham — Graph

°F

Bellingham Temperature Yesterday

Maximum temperature yesterday: 72 °F (at 3:53 PM)
Minimum temperature yesterday: 54 °F (at 9:53 PM)
Average temperature yesterday: 61 °F

High & Low Weather Summary for the Past Weeks

 TemperatureHumidityPressure
High76 °F (Sep 12, 1:53 PM)97% (Sep 20, 1:53 AM)30.43 "Hg (Sep 20, 1:53 AM)
Low42 °F (Sep 21, 6:53 AM)24% (Sep 12, 12:53 PM)29.79 "Hg (Sep 17, 11:00 AM)
Average58 °F74%30.11 "Hg
* Reported Sep 10 10:53 PM — Sep 25 10:53 PM, Bellingham, Weather by CustomWeather, © 2016

Note: Actual official high and low records may vary slightly from our data, if they occured in-between our weather recording intervals... More about our weather records

Advertising

Bellingham Weather History for the Previous 24 Hours

Scroll right to see more
 ConditionsComfort  
Time TempWeatherWind HumidityBarometerVisibility
10:53 PM
Sun, Sep 25
57 °FClear.5 mph83%30.29 "Hg10 mi
9:53 PM54 °FClear.No wind93%30.30 "Hg10 mi
8:53 PM56 °FClear.No wind90%30.32 "Hg10 mi
7:53 PM57 °FClear.No wind87%30.32 "Hg10 mi
6:53 PM64 °FSunny.No wind73%30.33 "Hg10 mi
5:53 PM70 °FSunny.No wind55%30.35 "Hg10 mi
4:53 PM72 °FSunny.7 mph48%30.36 "Hg10 mi
3:53 PM72 °FScattered clouds.6 mph48%30.38 "Hg10 mi
2:53 PM71 °FPassing clouds.5 mph47%30.40 "Hg10 mi
1:53 PM69 °FOvercast.5 mph53%30.42 "Hg10 mi
12:53 PM68 °FOvercast.8 mph55%30.43 "Hg10 mi
11:53 AM66 °FOvercast.6 mph61%30.43 "Hg10 mi
10:53 AM64 °FMostly cloudy.6 mph68%30.43 "Hg10 mi
9:53 AM60 °FOvercast.6 mph78%30.43 "Hg10 mi
8:53 AM57 °FOvercast.6 mph87%30.42 "Hg10 mi
7:53 AM55 °FOvercast.3 mph90%30.42 "Hg10 mi
6:53 AM55 °FOvercast.3 mph90%30.40 "Hg10 mi
5:53 AM55 °FOvercast.3 mph90%30.40 "Hg10 mi
4:53 AM55 °FOvercast.5 mph90%30.40 "Hg10 mi
3:53 AM56 °FOvercast.3 mph87%30.40 "Hg10 mi
2:53 AM56 °FMostly cloudy.3 mph84%30.40 "Hg10 mi
1:53 AM56 °FOvercast.3 mph87%30.40 "Hg10 mi
12:53 AM56 °FMostly cloudy.3 mph87%30.41 "Hg10 mi
Weather by CustomWeather, © 2016

See weather overviewHow to use our weather pages